Jackson Hawkins Field, MS

8:45 PM CDT on July 24, 2017 (GMT -0500)
Hawkins

Weather History for KHKS - March, 2013

Change the Weather History Date:

Saturday, March 23, 2013

  Actual Average Record
Temperature  
Mean Temperature 66 °F 59 °F  
Max Temperature 77 °F 70 °F 85 °F (2017)
Min Temperature 54 °F 48 °F 37 °F (2006)
Degree Days  
Heating Degree Days 0 7  
Month to date heating degree days 208  
Since 1 July heating degree days 2071  
Cooling Degree Days 0 1  
Month to date cooling degree days 23  
Year to date cooling degree days 35  
Growing Degree Days 16 (Base 50)    
Moisture  
Dew Point 58 °F    
Average Humidity 86    
Maximum Humidity 100    
Minimum Humidity 61    
Precipitation  
Precipitation 0.07 in 0.18 in 1.50 in (1953)
Month to date precipitation 3.71  
Year to date precipitation 13.11  
Sea Level Pressure  
Sea Level Pressure 29.74 in    
Wind  
Wind Speed 5 mph (East)    
Max Wind Speed 9 mph    
Max Gust Speed 17 mph    
Visibility 6 miles    
Events Fog , Rain , Thunderstorm    
T = Trace of Precipitation, MM = Missing Value Source: NWS Daily Summary

Daily Weather History Graph

Daily Weather History Graph

Search for Another Location

Airport or City:

Trip Planner

Search our weather history database for the weather conditions in past years. The results will help you decide how hot, cold, wet, or windy it might be!

Date:

Astronomy

Mar. 23, 2013 Rise Set
Actual Time 7:00 AM CDT 7:14 PM CDT
Civil Twilight 6:35 AM CDT 7:39 PM CDT
Nautical Twilight 6:07 AM CDT 8:07 PM CDT
Astronomical Twilight 5:38 AM CDT 8:36 PM CDT
Moon 3:51 PM CDT (3/23) 4:25 AM CDT (3/23)
Length of Visible Light 13h 03m
Length of Day
12h 14m
Waxing Gibbous, 85% of the Moon is Illuminated
Mar 23
Waxing Gibbous
Mar 27
Full
Apr 2
Last Quarter
Apr 10
New
Apr 18
First Quarter

Hourly Weather History & Observations

Time (CDT) Temp. Dew Point Humidity Pressure Visibility Wind Dir Wind Speed Gust Speed Precip Events Conditions
12:53 AM 54.0 °F 48.0 °F 80% 29.81 in 10.0 mi SE 9.2 mph - N/A   Overcast
1:53 AM 55.0 °F 48.9 °F 80% 29.80 in 10.0 mi SE 8.1 mph - N/A   Overcast
2:53 AM 55.9 °F 51.1 °F 84% 29.78 in 10.0 mi SSE 5.8 mph - N/A   Overcast
3:16 AM 57.2 °F 51.8 °F 82% 29.79 in 10.0 mi SSE 3.5 mph - N/A   Overcast
3:53 AM 57.9 °F 54.0 °F 87% 29.78 in 9.0 mi SSE 5.8 mph - N/A   Overcast
4:43 AM 57.2 °F 55.4 °F 94% 29.80 in 2.0 mi SE 3.5 mph - N/A   Overcast
4:50 AM 57.2 °F 55.4 °F 94% 29.81 in 1.8 mi Calm Calm - N/A   Overcast
4:53 AM 57.0 °F 55.9 °F 96% 29.79 in 1.5 mi Calm Calm - N/A   Overcast
5:41 AM 57.2 °F 55.4 °F 94% 29.82 in 1.0 mi NE 3.5 mph - N/A   Overcast
5:53 AM 57.0 °F 55.9 °F 96% 29.80 in 1.0 mi ENE 3.5 mph - N/A   Overcast
6:04 AM 57.2 °F 55.4 °F 94% 29.81 in 0.8 mi ENE 3.5 mph - N/A   Overcast
6:15 AM 57.2 °F 55.4 °F 94% 29.81 in 1.0 mi East 4.6 mph - N/A   Overcast
6:53 AM 57.0 °F 55.0 °F 93% 29.80 in 1.0 mi East 5.8 mph - N/A   Overcast
7:06 AM 55.4 °F 55.4 °F 100% 29.82 in 0.8 mi ENE 4.6 mph - N/A   Overcast
7:35 AM 55.4 °F 55.4 °F 100% 29.83 in 0.2 mi Calm Calm - N/A Fog Fog
7:53 AM 57.0 °F 55.9 °F 96% 29.81 in 0.2 mi SE 3.5 mph - N/A Fog Fog
8:53 AM 57.0 °F 57.0 °F 100% 29.82 in 0.5 mi ESE 4.6 mph - N/A Fog Fog
9:12 AM 57.2 °F 57.2 °F 100% 29.84 in 1.0 mi East 5.8 mph - N/A   Overcast
9:53 AM 59.0 °F 57.0 °F 93% 29.82 in 2.0 mi East 3.5 mph - N/A   Overcast
10:04 AM 59.0 °F 57.2 °F 94% 29.84 in 1.8 mi East 3.5 mph - N/A   Overcast
10:15 AM 59.0 °F 57.2 °F 94% 29.84 in 2.0 mi East 4.6 mph - N/A   Overcast
10:37 AM 60.8 °F 57.2 °F 88% 29.85 in 3.0 mi SSE 3.5 mph - N/A   Overcast
10:53 AM 61.0 °F 57.9 °F 90% 29.83 in 3.0 mi South 3.5 mph - N/A   Overcast
11:04 AM 62.6 °F 59.0 °F 88% 29.85 in 4.0 mi Calm Calm - N/A   Overcast
11:40 AM 64.4 °F 60.8 °F 88% 29.83 in 5.0 mi ESE 4.6 mph - N/A   Haze
11:53 AM 66.9 °F 60.1 °F 79% 29.81 in 6.0 mi SSE 3.5 mph - N/A   Haze
12:53 PM 71.1 °F 62.1 °F 73% 29.77 in 10.0 mi West 3.5 mph - N/A   Partly Cloudy
1:09 PM 71.6 °F 62.6 °F 73% 29.78 in 10.0 mi Calm Calm - N/A   Mostly Cloudy
1:39 PM 73.4 °F 62.6 °F 69% 29.74 in 10.0 mi SE 6.9 mph - N/A   Partly Cloudy
1:53 PM 73.9 °F 63.0 °F 68% 29.72 in 10.0 mi South 6.9 mph - N/A   Partly Cloudy
2:53 PM 75.9 °F 63.0 °F 64% 29.68 in 10.0 mi Calm Calm - N/A   Mostly Cloudy
3:04 PM 77.0 °F 62.6 °F 61% 29.70 in 10.0 mi NNE 4.6 mph - N/A   Overcast
3:21 PM 75.2 °F 62.6 °F 65% 29.69 in 10.0 mi Calm Calm - N/A   Overcast
3:53 PM 75.0 °F 62.1 °F 64% 29.64 in 10.0 mi NE 5.8 mph - N/A   Overcast
4:53 PM 72.0 °F 63.0 °F 73% 29.61 in 9.0 mi ENE 8.1 mph - N/A   Overcast
5:17 PM 69.8 °F 62.6 °F 78% 29.64 in 8.0 mi East 5.8 mph - N/A   Overcast
5:53 PM 69.1 °F 64.0 °F 84% 29.60 in 8.0 mi East 4.6 mph - 0.00 in Rain Light Rain
6:53 PM 68.0 °F 63.0 °F 84% 29.58 in 8.0 mi East 6.9 mph - 0.00 in   Overcast
7:24 PM 68.0 °F 62.6 °F 83% 29.58 in 9.0 mi SE 6.9 mph - N/A   Overcast
7:53 PM 68.0 °F 63.0 °F 84% 29.60 in 9.0 mi East 3.5 mph - N/A   Overcast
8:53 PM 66.9 °F 62.1 °F 84% 29.58 in 9.0 mi Variable 3.5 mph - N/A   Overcast
9:53 PM 63.0 °F 60.1 °F 90% 29.59 in 7.0 mi Calm Calm - 0.06 in   Mostly Cloudy
10:04 PM 62.6 °F 60.8 °F 94% 29.62 in 8.0 mi ENE 3.5 mph - N/A   Mostly Cloudy
10:14 PM 62.6 °F 60.8 °F 94% 29.62 in 7.0 mi ENE 3.5 mph - N/A   Mostly Cloudy
10:21 PM 62.6 °F 60.8 °F 94% 29.63 in 7.0 mi Calm Calm - N/A Thunderstorm Thunderstorm
10:53 PM 62.1 °F 59.0 °F 90% 29.60 in 7.0 mi Calm Calm - 0.00 in Rain , Thunderstorm Light Thunderstorms and Rain
11:24 PM 60.8 °F 59.0 °F 94% 29.63 in 6.0 mi North 4.6 mph - 0.00 in Thunderstorm Overcast
11:48 PM 57.2 °F 57.2 °F 100% 29.63 in 5.0 mi NNW 8.1 mph 17.3 mph 0.01 in Rain Light Rain
11:53 PM 57.9 °F 57.0 °F 97% 29.63 in 5.0 mi NNW 8.1 mph - 0.01 in Rain Light Rain